| time (UTC) | temp F | wind direction | speed knots | gust knots | rain 1hr in | rain 24hr in | rain mn in | humidity % | barometer mb |
| 20260507161504 | 55 | 360 | 0.0 | 2.6 | 0.00 | 0.00 | 0.00 | 74 | 1020.6 |
| 20260507160014 | 55 | 360 | 0.0 | 0.9 | 0.00 | 0.00 | 0.00 | 76 | 1020.6 |
| 20260507154519 | 54 | 360 | 0.0 | 1.7 | 0.00 | 0.00 | 0.00 | 76 | 1020.6 |
| 20260507153025 | 54 | 360 | 0.0 | 2.6 | 0.00 | 0.00 | 0.00 | 75 | 1020.8 |
| 20260507151505 | 53 | 360 | 0.0 | 1.7 | 0.00 | 0.00 | 0.00 | 76 | 1020.8 |
| 20260507150007 | 53 | 360 | 0.0 | 1.7 | 0.00 | 0.00 | 0.00 | 77 | 1020.8 |
| 20260507144512 | 53 | 360 | 0.0 | 1.7 | 0.00 | 0.00 | 0.00 | 77 | 1020.8 |
| 20260507143018 | 53 | 360 | 0.0 | 2.6 | 0.00 | 0.00 | 0.00 | 78 | 1020.8 |
| 20260507141523 | 53 | 360 | 0.0 | 1.7 | 0.00 | 0.00 | 0.00 | 79 | 1020.7 |
| 20260507140017 | 53 | 360 | 0.0 | 0.9 | 0.00 | 0.00 | 0.00 | 78 | 1020.5 |
| 20260507134510 | 53 | 360 | 0.0 | 1.7 | 0.00 | 0.00 | 0.00 | 79 | 1020.4 |
| 20260507133012 | 53 | 360 | 0.0 | 0.9 | 0.00 | 0.00 | 0.00 | 78 | 1020.5 |
| 20260507131534 | 53 | 360 | 0.0 | 0.9 | 0.00 | 0.00 | 0.00 | 79 | 1020.5 |
| 20260507130023 | 53 | 360 | 0.0 | 0.9 | 0.00 | 0.00 | 0.00 | 77 | 1020.6 |
| 20260507124507 | 53 | 360 | 0.0 | 0.9 | 0.00 | 0.00 | 0.00 | 78 | 1020.6 |
| 20260507123013 | 53 | 360 | 0.0 | 0.9 | 0.00 | 0.00 | 0.00 | 78 | 1020.5 |
| 20260507121514 | 53 | 360 | 0.0 | 0.9 | 0.00 | 0.00 | 0.00 | 78 | 1020.6 |
| 20260507120029 | 53 | 360 | 0.0 | 0.0 | 0.00 | 0.00 | 0.00 | 80 | 1020.6 |
| 20260507114525 | 53 | 360 | 0.0 | 0.9 | 0.00 | 0.00 | 0.00 | 80 | 1020.7 |
| 20260507113007 | 54 | 360 | 0.0 | 0.9 | 0.00 | 0.00 | 0.00 | 81 | 1020.8 |
| 20260507111512 | 54 | 360 | 0.0 | 0.9 | 0.00 | 0.00 | 0.00 | 79 | 1020.8 |
| 20260507110018 | 54 | 360 | 0.0 | 0.9 | 0.00 | 0.00 | 0.00 | 80 | 1021.0 |
| 20260507104520 | 54 | 360 | 0.0 | 1.7 | 0.00 | 0.00 | 0.00 | 79 | 1021.0 |
| 20260507103026 | 54 | 360 | 0.0 | 1.7 | 0.00 | 0.00 | 0.00 | 80 | 1021.0 |
| 20260507101507 | 54 | 360 | 0.0 | 0.9 | 0.00 | 0.00 | 0.00 | 80 | 1021.1 |
| 20260507100028 | 54 | 360 | 0.0 | 0.0 | 0.00 | 0.00 | 0.00 | 79 | 1021.2 |
| 20260507094519 | 54 | 360 | 0.0 | 0.0 | 0.00 | 0.00 | 0.00 | 79 | 1021.3 |
| 20260507093027 | 54 | 360 | 0.0 | 0.9 | 0.00 | 0.00 | 0.00 | 79 | 1021.4 |
| 20260507091534 | 55 | 360 | 0.0 | 0.9 | 0.00 | 0.00 | 0.00 | 79 | 1021.5 |
| 20260507090009 | 55 | 360 | 0.0 | 0.0 | 0.00 | 0.00 | 0.00 | 79 | 1021.6 |
| 20260507084534 | 55 | 360 | 0.0 | 0.0 | 0.00 | 0.00 | 0.00 | 78 | 1021.7 |
| 20260507083023 | 55 | 360 | 0.0 | 0.9 | 0.00 | 0.00 | 0.00 | 77 | 1021.6 |
| 20260507081524 | 56 | 360 | 0.0 | 0.9 | 0.00 | 0.00 | 0.00 | 78 | 1021.7 |
| 20260507080026 | 56 | 5 | 0.0 | 1.7 | 0.00 | 0.00 | 0.00 | 78 | 1021.6 |
| 20260507074514 | 56 | 360 | 0.0 | 1.7 | 0.00 | 0.00 | 0.00 | 77 | 1021.6 |
| 20260507073020 | 56 | 360 | 0.0 | 0.9 | 0.00 | 0.00 | 0.00 | 78 | 1021.6 |
| 20260507071522 | 56 | 360 | 0.0 | 0.0 | 0.00 | 0.00 | 0.00 | 78 | 1021.4 |
| 20260507070013 | 56 | 360 | 0.0 | 0.9 | 0.00 | 0.00 | 0.00 | 77 | 1021.5 |
| 20260507064508 | 57 | 360 | 0.0 | 1.7 | 0.00 | 0.00 | 0.00 | 77 | 1021.5 |
| 20260507063016 | 57 | 360 | 0.0 | 1.7 | 0.00 | 0.00 | 0.00 | 77 | 1021.5 |
| 20260507061520 | 57 | 360 | 0.0 | 0.9 | 0.00 | 0.00 | 0.00 | 77 | 1021.5 |
| 20260507060032 | 58 | 360 | 0.0 | 1.7 | 0.00 | 0.00 | 0.00 | 76 | 1021.5 |
| 20260507054507 | 58 | 360 | 0.0 | 2.6 | 0.00 | 0.00 | 0.00 | 76 | 1021.5 |
| 20260507053012 | 59 | 360 | 0.0 | 2.6 | 0.00 | 0.00 | 0.00 | 77 | 1021.5 |
| 20260507051516 | 59 | 360 | 0.0 | 1.7 | 0.00 | 0.00 | 0.00 | 78 | 1021.4 |
| 20260507050046 | 59 | 360 | 0.0 | 0.9 | 0.00 | 0.00 | 0.00 | 81 | 1021.4 |
| 20260507044525 | 59 | 360 | 0.0 | 0.0 | 0.00 | 0.00 | 0.00 | 81 | 1021.3 |
| 20260507043006 | 60 | 360 | 0.0 | 0.0 | 0.00 | 0.00 | 0.00 | 82 | 1021.1 |
| 20260507041514 | 60 | 360 | 0.0 | 0.0 | 0.00 | 0.00 | 0.00 | 81 | 1021.1 |
| 20260507040021 | 61 | 360 | 0.0 | 0.0 | 0.00 | 0.00 | 0.00 | 79 | 1020.9 |
| 20260507034526 | 62 | 360 | 0.0 | 0.0 | 0.00 | 0.00 | 0.00 | 77 | 1020.6 |
| 20260507033031 | 63 | 360 | 0.0 | 0.0 | 0.00 | 0.00 | 0.00 | 75 | 1020.4 |
| 20260507031510 | 64 | 360 | 0.0 | 0.9 | 0.00 | 0.00 | 0.00 | 75 | 1020.2 |
| 20260507030014 | 64 | 360 | 0.0 | 1.7 | 0.00 | 0.00 | 0.00 | 73 | 1020.0 |
| 20260507024520 | 65 | 360 | 0.0 | 0.0 | 0.00 | 0.00 | 0.00 | 76 | 1019.9 |
| 20260507023025 | 65 | 360 | 0.0 | 0.9 | 0.00 | 0.00 | 0.00 | 74 | 1019.7 |
| 20260507021543 | 66 | 360 | 0.0 | 0.0 | 0.00 | 0.00 | 0.00 | 70 | 1019.8 |
| 20260507020019 | 66 | 360 | 0.0 | 0.9 | 0.00 | 0.00 | 0.00 | 70 | 1019.8 |
| 20260507014520 | 66 | 360 | 0.0 | 0.9 | 0.00 | 0.00 | 0.00 | 69 | 1019.9 |
| 20260507013021 | 67 | 360 | 0.0 | 0.9 | 0.00 | 0.00 | 0.00 | 68 | 1019.9 |
| 20260507011529 | 67 | 360 | 0.0 | 1.7 | 0.00 | 0.00 | 0.00 | 65 | 1020.0 |
| 20260507010037 | 67 | 360 | 0.0 | 0.9 | 0.00 | 0.00 | 0.00 | 66 | 1020.1 |
| 20260507004516 | 67 | 360 | 0.0 | 1.7 | 0.00 | 0.00 | 0.00 | 66 | 1020.2 |
| 20260507003020 | 67 | 360 | 0.0 | 1.7 | 0.00 | 0.00 | 0.00 | 65 | 1020.2 |
| 20260507001524 | 67 | 360 | 0.9 | 2.6 | 0.00 | 0.00 | 0.00 | 65 | 1020.1 |
| 20260507000033 | 67 | 360 | 0.0 | 2.6 | 0.00 | 0.00 | 0.00 | 66 | 1020.1 |
| 20260506234528 | 67 | 360 | 0.0 | 1.7 | 0.00 | 0.00 | 0.00 | 68 | 1020.2 |
| 20260506233016 | 67 | 360 | 0.0 | 2.6 | 0.00 | 0.00 | 0.00 | 68 | 1020.2 |
| 20260506231524 | 67 | 360 | 1.7 | 2.6 | 0.00 | 0.00 | 0.00 | 67 | 1020.2 |
| 20260506230022 | 67 | 360 | 0.0 | 2.6 | 0.00 | 0.00 | 0.00 | 69 | 1020.3 |
| 20260506224526 | 66 | 360 | 0.0 | 2.6 | 0.00 | 0.00 | 0.00 | 69 | 1020.5 |
| 20260506223026 | 67 | 360 | 0.9 | 1.7 | 0.00 | 0.00 | 0.00 | 66 | 1020.7 |
| 20260506221518 | 68 | 360 | 0.0 | 2.6 | 0.00 | 0.00 | 0.00 | 65 | 1020.6 |
| 20260506220003 | 68 | 9 | 0.0 | 1.7 | 0.00 | 0.00 | 0.00 | 67 | 1020.9 |
| 20260506214508 | 67 | 360 | 1.7 | 3.5 | 0.00 | 0.00 | 0.00 | 70 | 1020.8 |
| 20260506213005 | 66 | 360 | 0.9 | 4.3 | 0.00 | 0.00 | 0.00 | 71 | 1020.8 |
| 20260506211506 | 65 | 360 | 0.9 | 3.5 | 0.00 | 0.00 | 0.00 | 72 | 1020.9 |
| 20260506210007 | 63 | 360 | 0.0 | 1.7 | 0.00 | 0.00 | 0.00 | 77 | 1020.9 |
| 20260506204503 | 62 | 360 | 0.0 | 2.6 | 0.00 | 0.00 | 0.00 | 78 | 1021.2 |
| 20260506203019 | 62 | 360 | 0.0 | 1.7 | 0.00 | 0.00 | 0.00 | 77 | 1021.5 |
| 20260506201509 | 62 | 360 | 0.0 | 2.6 | 0.00 | 0.00 | 0.00 | 78 | 1021.5 |
| 20260506200008 | 61 | 360 | 0.0 | 1.7 | 0.00 | 0.00 | 0.00 | 79 | 1021.5 |
| 20260506194511 | 61 | 360 | 0.9 | 2.6 | 0.00 | 0.00 | 0.00 | 77 | 1021.3 |
| 20260506193004 | 60 | 360 | 0.0 | 1.7 | 0.00 | 0.00 | 0.00 | 81 | 1021.4 |
| 20260506191511 | 60 | 360 | 0.0 | 2.6 | 0.00 | 0.00 | 0.00 | 79 | 1021.5 |
| 20260506190008 | 60 | 360 | 0.0 | 0.9 | 0.00 | 0.00 | 0.00 | 82 | 1021.6 |
| 20260506184509 | 59 | 360 | 0.0 | 0.9 | 0.00 | 0.00 | 0.00 | 81 | 1021.6 |
| 20260506183010 | 59 | 360 | 0.0 | 1.7 | 0.00 | 0.00 | 0.00 | 81 | 1021.5 |
| 20260506181509 | 59 | 360 | 0.0 | 1.7 | 0.00 | 0.00 | 0.00 | 81 | 1021.4 |
| 20260506180009 | 59 | 360 | 0.0 | 2.6 | 0.00 | 0.00 | 0.00 | 81 | 1021.3 |
| 20260506174509 | 59 | 360 | 0.0 | 0.9 | 0.00 | 0.00 | 0.00 | 82 | 1021.4 |
| 20260506173012 | 58 | 360 | 0.0 | 2.6 | 0.00 | 0.00 | 0.00 | 83 | 1021.4 |
| 20260506171522 | 58 | 360 | 0.0 | 2.6 | 0.00 | 0.00 | 0.00 | 83 | 1021.0 |
| 20260506170009 | 58 | 360 | 0.0 | 2.6 | 0.00 | 0.00 | 0.00 | 84 | 1021.1 |
| 20260506163009 | 57 | 360 | 0.0 | 1.7 | 0.00 | 0.00 | 0.00 | 86 | 1020.7 |